{"data":{"norad_id":40890,"intl_designator":"2015-045B","name":"GSAT0206 (GALILEO 10)","alt_names":[],"object_type":"PAYLOAD","status":"ACTIVE","operator":null,"country":"ESA","launch_date":"2015-09-11","launch_site_code":"FRGUI","launch_vehicle":null,"mission":null,"orbit_class":"UNKNOWN","rcs_meters":8.8826,"size_class":null,"mass_kg":null,"dimensions":null,"purposes":["earth_obs","nav"],"wikipedia_slug":null,"has_3d_model":false,"image_url":null,"decayed_at":null,"tle_current":{"epoch":"2026-09-16T23:08:37.832928Z","epoch_age_seconds":319968,"freshness":"STALE","line1":"1 40890U 15045B   26259.96432677  .00000017  00000+0  00000+0 0  9990","line2":"2 40890  54.9240 219.0714 0002624 353.2075   6.7586  1.70473245 68605","mean_motion":1.70473245,"eccentricity":0.0002624,"inclination_deg":54.924,"raan_deg":219.0714,"arg_perigee_deg":353.2075,"mean_anomaly_deg":6.7586,"bstar":0,"rev_number":6860,"period_min":844.70733222683,"perigee_km":23214.503307453,"apogee_km":23230.037601285,"semimajor_km":29600.407454369,"source":"CELESTRAK","updated_at":"2026-09-20T09:00:46.493230Z"}}}